Regional Weather Roundup
Issued by NWS

Home | Current Version | Previous Version | Graphics & Text | Print | Product List | Glossary On
Versions: 1 2 3 4 5 6 7 8 9 10 11 12 13 14 15 16 17 18 19 20 21 22 23 24 25 26 27 28 29 30 31 32 33 34 35 36 37 38 39 40 41 42 43 44 45 46 47 48 49 50
000
ASUS43 KIND 240100
RWRIN

WEATHER ROUNDUP FOR INDIANA
NATIONAL WEATHER SERVICE INDIANAPOLIS IN
900 PM EDT WED AUG 23 2017

NOTE: "FAIR" INDICATES FEW OR NO CLOUDS BELOW 12,000 FEET WITH NO
SIGNIFICANT WEATHER AND/OR OBSTRUCTIONS TO VISIBILITY.

* - STATION DOES NOT REPORT WEATHER SUCH AS PRECIPITATION OR FOG.

+ - STATION NOT QUALITY CONTROLLED BY THE NATIONAL WEATHER SERVICE.
    USE DATA WITH CAUTION...ESPECIALLY DEWPOINT AND RELATIVE
    HUMIDITY OBSERVATIONS.

INZ001>003-010>013-019-020-240200-
NORTHWEST INDIANA

CITY           SKY/WX    TMP DP  RH WIND       PRES   REMARKS
GARY /AIRPORT/ PTCLDY    66  55  68 E3        30.02S
MICHIGAN CITY+ CLEAR     61  55  82 CALM      30.03R
MONTICELLO +   PTCLDY    66  58  76 CALM      30.01R
RENSSELAER +   PTCLDY    64  55  72 CALM      30.02R

$$

LMZ046-743>745-240200-
SOUTHERN LAKE MICHIGAN

STATION/POSITION TIME  TEMP    WIND        PRES    WAVE
                       AIR SEA DIR/SP/G            HT
                 (UTC) (F)     (DEG/KT/KT) (MB)    (FT)
BURNS HARBOR     0040   69      70/  7/ 10 1016.9R
MICHIGAN CITY    0030   68      50/  9/ 10   N/A
5NW MICH CITY    0050   68 74   80/  6/  8   N/A     3

$$

INZ004-005-014>016-021>024-240200-
NORTH CENTRAL INDIANA

CITY           SKY/WX    TMP DP  RH WIND       PRES   REMARKS
ELKHART        CLEAR     64  50  59 CALM      30.02S
GOSHEN         CLEAR     64  47  53 N7        30.02R
PERU/GRISSOM   PTCLDY    66  58  77 NE7       30.00S
SOUTH BEND     CLEAR     62  53  72 N5        30.02S

$$

INZ006>009-017-018-025>027-240200-
NORTHEAST INDIANA

CITY           SKY/WX    TMP DP  RH WIND       PRES   REMARKS
FORT WAYNE     CLEAR     65  51  60 NW7       30.01R
KENDALLVILLE + CLEAR     62  50  66 NW5       30.02S

$$

INZ028-029-035-036-043>045-051>053-240200-
WEST CENTRAL INDIANA

CITY           SKY/WX    TMP DP  RH WIND       PRES   REMARKS
LAFAYETTE      PTCLDY    64  60  87 W5        30.01R
TERRE HAUTE    CLEAR     66  55  67 N3        30.02R

$$

INZ030>032-037>040-046>048-054>057-064-065-240200-
CENTRAL INDIANA

CITY           SKY/WX    TMP DP  RH WIND       PRES   REMARKS
COLUMBUS       CLEAR     66  55  68 CALM      30.01R
GREENWOOD *+   CLEAR     86  75  68 NW3       30.02R HX  95
INDIANAPOLIS   PTCLDY    68  52  56 NW6       30.01R
-EAGLE CREEK   CLEAR     69  53  56 NW6       30.01R
KOKOMO +       PTCLDY    67  58  72 N6        30.02S
MT COMFORT *+  CLEAR     64  54  68 NW6       30.02R
SHELBYVILLE    CLEAR     63  55  75 N3        30.00S

$$

INZ033-034-041-042-049-050-058-059-240200-
EAST CENTRAL INDIANA

CITY           SKY/WX    TMP DP  RH WIND       PRES   REMARKS
MUNCIE         CLEAR     62  57  83 NW3       30.01S
RICHMOND +     CLEAR     63  54  72 CALM      30.01S

$$

INZ060-061-067>069-081>083-085>088-240200-
SOUTHWEST INDIANA

CITY           SKY/WX    TMP DP  RH WIND       PRES   REMARKS
EVANSVILLE     CLEAR     70  54  56 NW5       30.01R
HUNTINGBURG +  CLEAR     69  56  62 NW3       30.01R

$$

INZ062-063-066-070>080-084-089>092-240200-
SOUTH CENTRAL AND SOUTHEAST INDIANA

CITY           SKY/WX    TMP DP  RH WIND       PRES   REMARKS
BLOOMINGTON    CLEAR     63  54  72 CALM      30.01S
MADISON *+     CLEAR     63  59  88 CALM      30.02S
SEYMOUR +      CLEAR     70  52  52 NW3       30.00R

$$




USA.gov is the U.S. government's official web portal to all federal, state and local government web resources and services.